This demonstration page uses our WeatherBlox Daily Observations layout. Learn more.

Left ArrowRight Arrow

Hourly Observations for May 20, 2021

Temp ( °F °C ) Dew Point ( °F °C ) Humidity (%) Winds ( mph kmh ) Pressure ( in mb ) Visibility ( mi km ) Precip ( " mm )
12:15 am 00:15 Clear 63 17 54 12 73 73 WSW 5 7 30.36 1028 10 16 0.00 0.00
12:35 am 00:35 Clear 63 17 54 12 73 73 WSW 6 9 30.36 1028 10 16 0.00 0.00
12:55 am 00:55 Clear 64 18 54 12 68 68 WSW 5 7 30.35 1028 10 16 0.00 0.00
1:15 am 01:15 Clear 63 17 54 12 73 73 WSW 3 6 30.36 1028 10 16 0.00 0.00
1:35 am 01:35 Clear 63 17 54 12 73 73 Calm 30.36 1028 10 16 0.00 0.00
1:55 am 01:55 Clear 63 17 54 12 73 73 Calm 30.36 1028 10 16 0.00 0.00
2:15 am 02:15 Clear 61 16 54 12 77 77 Calm 30.36 1028 10 16 0.00 0.00
2:35 am 02:35 Clear 61 16 54 12 77 77 Calm 30.37 1028 10 16 0.00 0.00
2:55 am 02:55 Clear 61 16 52 11 72 72 Calm 30.37 1028 10 16 0.00 0.00
3:15 am 03:15 Clear 59 15 54 12 82 82 Calm 30.36 1028 10 16 0.00 0.00
3:35 am 03:35 Clear 57 14 52 11 82 82 Calm 30.37 1028 10 16 0.00 0.00
3:55 am 03:55 Clear 55 13 52 11 88 88 NW 3 6 30.37 1028 10 16 0.00 0.00
4:15 am 04:15 Clear 55 13 54 12 94 94 Calm 30.37 1028 10 16 0.00 0.00
4:35 am 04:35 Clear 55 13 52 11 88 88 Calm 30.37 1028 10 16 0.00 0.00
4:55 am 04:55 Clear 59 15 52 11 77 77 Calm 30.38 1029 10 16 0.00 0.00
5:15 am 05:15 Clear 57 14 52 11 82 82 Calm 30.38 1029 10 16 0.00 0.00
5:35 am 05:35 Clear 55 13 52 11 88 88 Calm 30.39 1029 10 16 0.00 0.00
5:55 am 05:55 Sunny 55 13 52 11 88 88 Calm 30.40 1030 10 16 0.00 0.00
6:15 am 06:15 Sunny 54 12 52 11 94 94 Calm 30.40 1030 10 16 0.00 0.00
6:35 am 06:35 Sunny 54 12 52 11 94 94 Calm 30.41 1030 10 16 0.00 0.00
6:55 am 06:55 Sunny 54 12 52 11 94 94 Calm 30.42 1030 10 16 0.00 0.00
7:15 am 07:15 Sunny 55 13 54 12 94 94 Calm 30.43 1031 10 16 0.00 0.00
7:35 am 07:35 Sunny 59 15 54 12 82 82 Calm 30.43 1030 10 16 0.00 0.00
7:55 am 07:55 Sunny 63 17 55 13 77 77 Calm 30.43 1030 7 11 0.00 0.00
8:15 am 08:15 Sunny 66 19 55 13 68 68 Calm 30.43 1031 10 16 0.00 0.00
8:35 am 08:35 Sunny 70 21 57 14 64 64 Calm 30.42 1030 10 16 0.00 0.00
8:55 am 08:55 Sunny 72 22 57 14 61 61 Calm 30.43 1030 10 16 0.00 0.00
9:15 am 09:15 Sunny 73 23 55 13 53 53 NNW 5 7 30.43 1030 10 16 0.00 0.00
9:35 am 09:35 Sunny 77 25 55 13 47 47 N 5 7 30.42 1030 10 16 0.00 0.00
9:55 am 09:55 Sunny 77 25 55 13 47 47 NNW 6 9 30.42 1030 10 16 0.00 0.00
10:15 am 10:15 Sunny 79 26 55 13 45 45 Calm 30.41 1030 10 16 0.00 0.00
10:35 am 10:35 Sunny 79 26 55 13 45 45 NW 3 6 30.42 1030 10 16 0.00 0.00
10:55 am 10:55 Sunny 81 27 55 13 42 42 NNW 3 6 30.42 1030 10 16 0.00 0.00
11:15 am 11:15 Sunny 81 27 54 12 39 39 NNW 3 6 30.42 1030 10 16 0.00 0.00
11:35 am 11:35 Sunny 81 27 55 13 42 42 Calm 30.42 1030 10 16 0.00 0.00
11:55 am 11:55 Sunny 82 28 52 11 35 35 Calm 30.41 1030 10 16 0.00 0.00
12:35 pm 12:35 Sunny 84 29 55 13 37 37 Calm 30.41 1030 10 16 0.00 0.00
12:55 pm 12:55 Sunny 86 30 54 12 33 33 Calm 30.40 1029 10 16 0.00 0.00
1:15 pm 13:15 Sunny 86 30 54 12 33 33 S 5 7 30.40 1029 10 16 0.00 0.00
1:35 pm 13:35 Sunny 88 31 54 12 31 31 SW 7 11 30.39 1029 10 16 0.00 0.00
1:55 pm 13:55 Sunny 86 30 52 11 31 31 SSW 3 6 30.39 1029 10 16 0.00 0.00
2:15 pm 14:15 Sunny 88 31 54 12 31 31 Calm 30.39 1029 10 16 0.00 0.00
2:35 pm 14:35 Partly Cloudy 88 31 54 12 31 31 WSW 5 7 30.38 1029 10 16 0.00 0.00
2:55 pm 14:55 Partly Cloudy 88 31 55 13 33 33 W 5 7 30.38 1029 10 16 0.00 0.00
3:15 pm 15:15 Mostly Cloudy 88 31 55 13 33 33 Calm 30.37 1028 10 16 0.00 0.00
3:35 pm 15:35 Mostly Cloudy 88 31 54 12 31 31 W 3 6 30.37 1028 10 16 0.00 0.00
3:55 pm 15:55 Mostly Cloudy 88 31 52 11 29 29 SE 3 6 30.37 1028 10 16 0.00 0.00
4:15 pm 16:15 Mostly Cloudy 86 30 52 11 31 31 E 3 6 30.36 1028 10 16 0.00 0.00
4:35 pm 16:35 Partly Cloudy 88 31 52 11 29 29 NE 5 7 30.36 1028 10 16 0.00 0.00
4:55 pm 16:55 Sunny 88 31 52 11 29 29 SE 5 7 30.36 1028 10 16 0.00 0.00
5:15 pm 17:15 Partly Cloudy 88 31 52 11 29 29 Calm 30.36 1028 10 16 0.00 0.00
5:35 pm 17:35 Mostly Cloudy 88 31 52 11 29 29 SSE 5 7 30.36 1028 10 16 0.00 0.00
5:55 pm 17:55 Cloudy 86 30 54 12 33 33 ESE 7 11 30.36 1028 10 16 0.00 0.00
6:15 pm 18:15 Mostly Cloudy 84 29 57 14 40 40 ESE 9 15 30.36 1028 10 16 0.00 0.00
6:35 pm 18:35 Mostly Cloudy 82 28 59 15 45 45 ESE 9 15 30.36 1028 10 16 0.00 0.00
6:55 pm 18:55 Mostly Cloudy 82 28 59 15 45 45 ESE 12 19 30.37 1028 10 16 0.00 0.00
7:15 pm 19:15 Partly Cloudy 82 28 59 15 45 45 ESE 12 19 30.37 1028 10 16 0.00 0.00
7:35 pm 19:35 Sunny 81 27 59 15 48 48 SE 12 19 30.37 1028 10 16 0.00 0.00
7:55 pm 19:55 Sunny 79 26 59 15 51 51 SE 12 19 30.38 1029 10 16 0.00 0.00
8:15 pm 20:15 Sunny 77 25 59 15 54 54 SE 15 24 30.40 1030 10 16 0.00 0.00
8:35 pm 20:35 Clear 75 24 54 12 47 47 SE 10 17 30.42 1030 10 16 0.00 0.00
8:55 pm 20:55 Clear 73 23 50 10 44 44 SSE 14 22 30.44 1031 10 16 0.00 0.00
9:15 pm 21:15 Clear 72 22 45 7 38 38 SE 13 20 30.45 1031 10 16 0.00 0.00
9:35 pm 21:35 Clear 72 22 43 6 36 36 SE 7 11 30.45 1031 10 16 0.00 0.00
9:55 pm 21:55 Clear 72 22 43 6 36 36 SE 10 17 30.46 1031 10 16 0.00 0.00
10:15 pm 22:15 Clear 70 21 43 6 38 38 SSE 6 9 30.48 1032 10 16 0.00 0.00
10:35 pm 22:35 Clear 70 21 43 6 38 38 SSE 5 7 30.49 1033 10 16 0.00 0.00
10:55 pm 22:55 Clear 70 21 43 6 38 38 SSE 3 6 30.49 1033 10 16 0.00 0.00
11:15 pm 23:15 Clear 68 20 43 6 40 40 SSE 7 11 30.49 1033 10 16 0.00 0.00
11:35 pm 23:35 Clear 68 20 41 5 38 38 S 9 15 30.50 1033 10 16 0.00 0.00
11:55 pm 23:55 Clear 68 20 41 5 38 38 S 8 13 30.50 1033 10 16 0.00 0.00

Powered by AerisWeather